Change the Weather History Date:

Wednesday, February 19, 2014

  Actual Average Record
Temperature  
Mean Temperature 47 °F 35 °F  
Max Temperature 59 °F 44 °F 72 °F (1939)
Min Temperature 34 °F 26 °F -5 °F (2015)
Degree Days  
Heating Degree Days 18 30  
Month to date heating degree days 657 599  
Since 1 July heating degree days 3936 3743  
Cooling Degree Days 0 0  
Month to date cooling degree days 0 0  
Year to date cooling degree days 0 0  
Moisture  
Dew Point 33 °F    
Average Humidity 59    
Maximum Humidity 86    
Minimum Humidity 31    
Precipitation  
Precipitation 0.11 in 0.10 in 1.15 in (1914)
Month to date precipitation 2.88 1.85  
Year to date precipitation 4.82 4.66  
Snow  
Snow 0.00 in - - ()
Month to date snowfall 24.3  
Since 1 September snowfall 59.2  
Snow Depth 0.00 in    
Sea Level Pressure  
Sea Level Pressure 29.93 in    
Wind  
Wind Speed 12 mph (WSW)    
Max Wind Speed 30 mph    
Max Gust Speed 41 mph    
Visibility 10 miles    
Events Rain    
T = Trace of Precipitation, MM = Missing Value Source: NWS Daily Summary

Daily Weather History Graph

Daily Weather History Graph

Search for Another Location

Airport or City:

Trip Planner

Search our weather history database for the weather conditions in past years. The results will help you decide how hot, cold, wet, or windy it might be!

Date:

Astronomy

Feb. 19, 2014 Rise Set
Actual Time 7:09 AM EST 6:07 PM EST
Civil Twilight 6:42 AM EST 6:34 PM EST
Nautical Twilight 6:12 AM EST 7:05 PM EST
Astronomical Twilight 5:41 AM EST 7:35 PM EST
Moon 10:53 PM EST (2/19) 9:19 AM EST (2/19)
Length of Visible Light 11h 51m
Length of Day
10h 58m
Waning Gibbous, 80% of the Moon is Illuminated
Feb 19
Waning Gibbous
Feb 22
Last Quarter
Mar 1
New
Mar 8
First Quarter
Mar 16
Full

Hourly Weather History & Observations

Time (EST) Temp. Windchill Dew Point Humidity Pressure Visibility Wind Dir Wind Speed Gust Speed Precip Events Conditions
12:51 AM 46.0 °F 43.1 °F 18.0 °F 33% 29.97 in 10.0 mi SSE 5.8 mph - N/A   Mostly Cloudy
1:51 AM 46.0 °F 43.9 °F 23.0 °F 40% 29.93 in 10.0 mi SE 4.6 mph - N/A   Mostly Cloudy
2:51 AM 48.0 °F - 24.1 °F 39% 29.90 in 10.0 mi SSE 5.8 mph - N/A   Overcast
3:51 AM 46.0 °F 41.0 °F 26.1 °F 46% 29.86 in 10.0 mi SSE 10.4 mph - 0.00 in   Mostly Cloudy
4:51 AM 48.0 °F - 30.9 °F 52% 29.83 in 10.0 mi South 11.5 mph - 0.00 in   Mostly Cloudy
5:51 AM 48.9 °F - 39.9 °F 71% 29.82 in 10.0 mi SSW 12.7 mph - 0.04 in   Mostly Cloudy
6:14 AM 48.0 °F - 39.9 °F 74% 29.82 in 10.0 mi SW 13.8 mph - 0.00 in Rain Light Rain
6:33 AM 48.0 °F - 41.0 °F 77% 29.83 in 10.0 mi WSW 10.4 mph - 0.01 in Rain Light Rain
6:51 AM 45.0 °F 41.8 °F 39.9 °F 82% 29.86 in 6.0 mi West 5.8 mph - 0.05 in Rain Light Rain
7:51 AM 46.0 °F 41.4 °F 42.1 °F 86% 29.86 in 10.0 mi SW 9.2 mph - 0.02 in Rain Light Rain
8:39 AM 46.0 °F 41.4 °F 43.0 °F 89% 29.85 in 10.0 mi SW 9.2 mph - 0.00 in   Overcast
8:51 AM 46.0 °F 41.4 °F 43.0 °F 89% 29.86 in 10.0 mi SW 9.2 mph - 0.00 in   Overcast
9:37 AM 48.0 °F - 44.1 °F 86% 29.86 in 10.0 mi WSW 12.7 mph - N/A   Overcast
9:51 AM 48.0 °F - 44.1 °F 86% 29.88 in 10.0 mi SW 13.8 mph 19.6 mph N/A   Overcast
10:11 AM 48.9 °F - 44.1 °F 83% 29.87 in 10.0 mi WSW 9.2 mph 18.4 mph N/A   Overcast
10:51 AM 51.1 °F - 43.0 °F 74% 29.88 in 10.0 mi WSW 19.6 mph 26.5 mph N/A   Mostly Cloudy
11:37 AM 52.0 °F - 42.1 °F 69% 29.88 in 10.0 mi WSW 18.4 mph 28.8 mph N/A   Mostly Cloudy
11:51 AM 53.1 °F - 42.1 °F 66% 29.88 in 10.0 mi West 24.2 mph 34.5 mph N/A   Scattered Clouds
12:51 PM 54.0 °F - 41.0 °F 62% 29.86 in 10.0 mi West 24.2 mph 32.2 mph N/A   Mostly Cloudy
1:51 PM 59.0 °F - 39.9 °F 49% 29.86 in 10.0 mi WNW 13.8 mph 28.8 mph N/A   Mostly Cloudy
2:51 PM 57.0 °F - 36.0 °F 45% 29.88 in 10.0 mi WNW 19.6 mph 31.1 mph N/A   Partly Cloudy
3:51 PM 55.9 °F - 28.9 °F 36% 29.93 in 10.0 mi West 23.0 mph 36.8 mph N/A   Clear
4:51 PM 55.0 °F - 30.0 °F 38% 29.96 in 10.0 mi WNW 17.3 mph 24.2 mph N/A   Clear
5:51 PM 52.0 °F - 26.1 °F 37% 30.01 in 10.0 mi WNW 12.7 mph 21.9 mph N/A   Clear
6:51 PM 48.0 °F - 24.1 °F 39% 30.08 in 10.0 mi NNW 9.2 mph - N/A   Clear
7:51 PM 45.0 °F 41.8 °F 23.0 °F 42% 30.11 in 10.0 mi NNW 5.8 mph - N/A   Clear
8:51 PM 43.0 °F 39.5 °F 24.1 °F 47% 30.12 in 10.0 mi North 5.8 mph - N/A   Clear
9:51 PM 43.0 °F 41.3 °F 23.0 °F 45% 30.12 in 10.0 mi NNE 3.5 mph - N/A   Clear
10:51 PM 39.0 °F 36.8 °F 24.1 °F 55% 30.12 in 10.0 mi East 3.5 mph - N/A   Clear
11:51 PM 37.9 °F 32.7 °F 24.1 °F 57% 30.10 in 10.0 mi SSE 6.9 mph - N/A   Clear